Location: Chand?puram
(16.7564°N, 80.2764°E)
Time: 16:06:29
(UTC+00:00)

Cosmos 1603 - Pass Details

Date: 15 November 2025
Orbit: 830 x 858 km, 71.0° (Epoch: 12 December)

Event Time Altitude Azimuth Distance (km) Brightness Sun altitude
Rises 00:11:35 0° 190° (S) 3,409 7.0 -8.0°
Reaches altitude 10° 00:14:02 10° 187° (S) 2,477 6.3 -7.4°
Maximum altitude 00:19:42 68° 105° (ESE) 918 4.2 -6.1°
Drops below altitude 10° 00:25:22 10° 23° (NNE) 2,487 6.2 -4.8°
Sets 00:27:50 0° 21° (NNE) 3,423 6.9 -4.3°
